| time (UTC) | temp F | wind direction | speed knots | gust knots | rain 1hr in | rain 24hr in | rain mn in | humidity % | barometer mb |
| 20260506124157 | 64 | 221 | 0.0 | 0.9 | 0.00 | 0.00 | 0.00 | 74 | 1003.3 |
| 20260506123646 | 63 | 223 | 0.0 | 2.6 | 0.00 | 0.00 | 0.00 | 74 | 1003.2 |
| 20260506123157 | 63 | 223 | 0.0 | 3.5 | 0.00 | 0.00 | 0.00 | 73 | 1003.3 |
| 20260506122648 | 63 | 223 | 0.9 | 3.5 | 0.00 | 0.00 | 0.00 | 74 | 1003.3 |
| 20260506122156 | 63 | 223 | 0.0 | 0.9 | 0.00 | 0.00 | 0.00 | 80 | 1003.3 |
| 20260506121647 | 62 | 223 | 0.0 | 0.9 | 0.00 | 0.00 | 0.00 | 80 | 1003.3 |
| 20260506121143 | 61 | 223 | 0.0 | 0.9 | 0.00 | 0.00 | 0.00 | 80 | 1003.3 |
| 20260506120504 | 60 | 223 | 0.0 | 0.9 | 0.00 | 0.00 | 0.00 | 80 | 1003.3 |
| 20260506115651 | 59 | 223 | 0.0 | 0.9 | 0.00 | 0.00 | 0.00 | 80 | 1003.3 |
| 20260506115159 | 59 | 223 | 0.0 | 2.6 | 0.00 | 0.00 | 0.00 | 79 | 1003.4 |
| 20260506114502 | 59 | 221 | 0.0 | 0.9 | 0.00 | 0.00 | 0.00 | 79 | 1003.4 |
| 20260506114158 | 59 | 221 | 0.0 | 0.9 | 0.00 | 0.00 | 0.00 | 78 | 1003.4 |
| 20260506113648 | 59 | 221 | 0.0 | 2.6 | 0.00 | 0.00 | 0.00 | 78 | 1003.4 |
| 20260506113139 | 59 | 221 | 0.0 | 2.6 | 0.00 | 0.00 | 0.00 | 78 | 1003.4 |
| 20260506112650 | 59 | 221 | 0.0 | 2.6 | 0.00 | 0.00 | 0.00 | 78 | 1003.4 |
| 20260506112142 | 60 | 221 | 0.0 | 1.7 | 0.00 | 0.00 | 0.00 | 78 | 1003.4 |
| 20260506111652 | 60 | 221 | 0.0 | 1.7 | 0.00 | 0.00 | 0.00 | 78 | 1003.4 |
| 20260506111145 | 60 | 221 | 0.0 | 3.5 | 0.00 | 0.00 | 0.00 | 79 | 1003.4 |
| 20260506110506 | 61 | 221 | 0.9 | 3.5 | 0.00 | 0.00 | 0.00 | 79 | 1003.4 |
| 20260506105647 | 60 | 217 | 0.0 | 2.6 | 0.00 | 0.00 | 0.00 | 80 | 1003.4 |
| 20260506105158 | 60 | 217 | 0.0 | 1.7 | 0.00 | 0.00 | 0.00 | 81 | 1003.4 |
| 20260506104501 | 60 | 217 | 0.0 | 1.7 | 0.00 | 0.00 | 0.00 | 83 | 1003.4 |
| 20260506104200 | 60 | 217 | 0.0 | 0.9 | 0.00 | 0.00 | 0.00 | 83 | 1003.3 |
| 20260506103649 | 60 | 217 | 0.0 | 1.7 | 0.00 | 0.00 | 0.00 | 83 | 1003.4 |
| 20260506103143 | 60 | 217 | 0.0 | 2.6 | 0.00 | 0.00 | 0.00 | 83 | 1003.4 |
| 20260506102652 | 59 | 217 | 0.0 | 2.6 | 0.00 | 0.00 | 0.00 | 82 | 1003.4 |
| 20260506102141 | 59 | 217 | 0.0 | 0.9 | 0.00 | 0.00 | 0.00 | 83 | 1003.4 |
| 20260506101652 | 60 | 217 | 0.0 | 0.9 | 0.00 | 0.00 | 0.00 | 83 | 1003.4 |
| 20260506101144 | 60 | 217 | 0.0 | 1.7 | 0.00 | 0.00 | 0.00 | 83 | 1003.4 |
| 20260506100654 | 60 | 217 | 0.0 | 5.2 | 0.00 | 0.00 | 0.00 | 83 | 1003.5 |
| 20260506100149 | 60 | 217 | 1.7 | 7.0 | 0.00 | 0.00 | 0.00 | 83 | 1003.5 |
| 20260506095655 | 60 | 213 | 0.9 | 7.0 | 0.00 | 0.00 | 0.00 | 84 | 1003.4 |
| 20260506095144 | 60 | 236 | 0.0 | 4.3 | 0.00 | 0.00 | 0.00 | 86 | 1003.4 |
| 20260506094655 | 60 | 238 | 0.0 | 4.3 | 0.00 | 0.00 | 0.00 | 86 | 1003.4 |
| 20260506094144 | 60 | 236 | 0.0 | 6.1 | 0.00 | 0.00 | 0.00 | 87 | 1003.5 |
| 20260506093654 | 59 | 237 | 0.9 | 6.1 | 0.00 | 0.00 | 0.00 | 88 | 1003.4 |
| 20260506093145 | 59 | 252 | 0.0 | 5.2 | 0.00 | 0.00 | 0.00 | 88 | 1003.5 |
| 20260506092658 | 58 | 273 | 0.0 | 2.6 | 0.00 | 0.00 | 0.00 | 89 | 1003.4 |
| 20260506092146 | 58 | 275 | 0.0 | 7.0 | 0.00 | 0.00 | 0.00 | 89 | 1003.4 |
| 20260506091657 | 57 | 224 | 0.9 | 7.0 | 0.00 | 0.00 | 0.00 | 89 | 1003.4 |
| 20260506091147 | 57 | 227 | 0.9 | 3.5 | 0.00 | 0.00 | 0.00 | 90 | 1003.4 |
| 20260506090658 | 57 | 227 | 0.0 | 4.3 | 0.00 | 0.00 | 0.00 | 90 | 1003.3 |
| 20260506090148 | 57 | 227 | 0.9 | 4.3 | 0.00 | 0.00 | 0.00 | 91 | 1003.4 |
| 20260506085144 | 56 | 227 | 0.0 | 3.5 | 0.00 | 0.00 | 0.00 | 91 | 1003.3 |
| 20260506084654 | 56 | 227 | 0.0 | 3.5 | 0.00 | 0.00 | 0.00 | 91 | 1003.4 |
| 20260506084145 | 56 | 227 | 0.9 | 3.5 | 0.00 | 0.00 | 0.00 | 92 | 1003.4 |
| 20260506083655 | 56 | 230 | 0.9 | 5.2 | 0.00 | 0.00 | 0.00 | 92 | 1003.3 |
| 20260506083144 | 57 | 246 | 0.9 | 6.1 | 0.00 | 0.00 | 0.00 | 92 | 1003.3 |
| 20260506082657 | 57 | 228 | 0.0 | 3.5 | 0.00 | 0.00 | 0.00 | 92 | 1003.2 |
| 20260506082146 | 57 | 223 | 0.0 | 3.5 | 0.00 | 0.00 | 0.00 | 92 | 1003.3 |
| 20260506081658 | 57 | 223 | 0.0 | 3.5 | 0.00 | 0.00 | 0.00 | 93 | 1003.2 |
| 20260506081147 | 56 | 223 | 0.0 | 3.5 | 0.00 | 0.00 | 0.00 | 93 | 1003.2 |
| 20260506080659 | 56 | 234 | 0.0 | 5.2 | 0.00 | 0.00 | 0.00 | 93 | 1003.2 |
| 20260506080148 | 56 | 222 | 0.9 | 4.3 | 0.00 | 0.00 | 0.00 | 93 | 1003.2 |
| 20260506073149 | 56 | 238 | 0.0 | 2.6 | 0.00 | 0.00 | 0.00 | 93 | 1003.2 |
| 20260506072703 | 55 | 238 | 0.0 | 2.6 | 0.00 | 0.00 | 0.00 | 93 | 1003.2 |
| 20260506072150 | 55 | 238 | 0.0 | 2.6 | 0.00 | 0.00 | 0.00 | 93 | 1003.2 |
| 20260506071640 | 55 | 238 | 0.0 | 2.6 | 0.00 | 0.00 | 0.00 | 93 | 1003.2 |
| 20260506071154 | 55 | 240 | 0.0 | 3.5 | 0.00 | 0.00 | 0.00 | 94 | 1003.2 |
| 20260506070643 | 55 | 240 | 0.0 | 1.7 | 0.00 | 0.00 | 0.00 | 94 | 1003.2 |
| 20260506070155 | 55 | 240 | 0.0 | 0.9 | 0.00 | 0.00 | 0.00 | 94 | 1003.3 |
| 20260506062151 | 54 | 240 | 0.0 | 0.0 | 0.00 | 0.00 | 0.00 | 94 | 1003.0 |
| 20260506061642 | 54 | 240 | 0.0 | 0.0 | 0.00 | 0.00 | 0.00 | 94 | 1002.9 |
| 20260506061155 | 54 | 240 | 0.0 | 0.9 | 0.00 | 0.00 | 0.00 | 94 | 1003.0 |
| 20260506060644 | 54 | 240 | 0.0 | 0.9 | 0.00 | 0.00 | 0.00 | 94 | 1002.9 |
| 20260506060154 | 54 | 240 | 0.0 | 0.9 | 0.00 | 0.00 | 0.00 | 94 | 1002.9 |
| 20260506051158 | 54 | 240 | 0.0 | 0.0 | 0.00 | 0.00 | 0.00 | 94 | 1002.8 |
| 20260506050648 | 54 | 240 | 0.0 | 0.0 | 0.00 | 0.00 | 0.00 | 94 | 1002.8 |
| 20260506050159 | 54 | 240 | 0.0 | 0.0 | 0.00 | 0.00 | 0.00 | 94 | 1002.9 |
| 20260506044642 | 54 | 240 | 0.0 | 0.9 | 0.00 | 0.00 | 0.00 | 94 | 1003.0 |
| 20260506044154 | 54 | 240 | 0.0 | 0.9 | 0.00 | 0.00 | 0.00 | 94 | 1003.0 |
| 20260506043643 | 54 | 240 | 0.0 | 0.9 | 0.00 | 0.00 | 0.00 | 94 | 1003.0 |
| 20260506043154 | 54 | 240 | 0.0 | 1.7 | 0.00 | 0.00 | 0.00 | 94 | 1003.0 |
| 20260506042645 | 54 | 240 | 0.0 | 2.6 | 0.00 | 0.00 | 0.00 | 94 | 1003.0 |
| 20260506042156 | 54 | 240 | 0.0 | 2.6 | 0.00 | 0.00 | 0.00 | 94 | 1003.0 |
| 20260506041646 | 54 | 240 | 0.0 | 0.9 | 0.00 | 0.00 | 0.00 | 94 | 1003.0 |
| 20260506041157 | 54 | 240 | 0.0 | 0.9 | 0.00 | 0.00 | 0.00 | 94 | 1003.0 |
| 20260506040650 | 54 | 240 | 0.0 | 2.6 | 0.00 | 0.00 | 0.00 | 94 | 1003.1 |
| 20260506040158 | 54 | 240 | 0.0 | 3.5 | 0.00 | 0.00 | 0.00 | 94 | 1002.9 |
| 20260506035639 | 54 | 240 | 0.0 | 3.5 | 0.00 | 0.00 | 0.00 | 94 | 1003.0 |
| 20260506035151 | 54 | 240 | 0.0 | 0.9 | 0.00 | 0.00 | 0.00 | 94 | 1002.9 |
| 20260506034642 | 54 | 240 | 0.0 | 0.9 | 0.00 | 0.00 | 0.00 | 94 | 1002.8 |
| 20260506034154 | 54 | 240 | 0.0 | 3.5 | 0.00 | 0.00 | 0.00 | 94 | 1002.9 |
| 20260506033646 | 54 | 240 | 0.0 | 3.5 | 0.00 | 0.00 | 0.00 | 94 | 1003.0 |
| 20260506033157 | 54 | 240 | 0.0 | 3.5 | 0.00 | 0.00 | 0.00 | 94 | 1003.0 |
| 20260506032650 | 54 | 240 | 0.0 | 0.9 | 0.00 | 0.00 | 0.00 | 94 | 1003.0 |
| 20260506032159 | 54 | 240 | 0.0 | 2.6 | 0.00 | 0.00 | 0.00 | 94 | 1002.9 |
| 20260506031650 | 54 | 240 | 0.0 | 2.6 | 0.00 | 0.00 | 0.00 | 94 | 1002.9 |
| 20260506030649 | 54 | 240 | 0.0 | 0.9 | 0.00 | 0.00 | 0.00 | 94 | 1003.0 |
| 20260506030158 | 54 | 240 | 0.0 | 1.7 | 0.00 | 0.00 | 0.00 | 94 | 1002.9 |
| 20260506025642 | 54 | 240 | 0.0 | 2.6 | 0.00 | 0.00 | 0.00 | 94 | 1003.0 |
| 20260506025154 | 55 | 240 | 0.0 | 2.6 | 0.00 | 0.00 | 0.00 | 94 | 1003.0 |
| 20260506024644 | 55 | 240 | 0.0 | 1.7 | 0.00 | 0.00 | 0.00 | 94 | 1002.9 |
| 20260506024156 | 55 | 240 | 0.0 | 0.0 | 0.00 | 0.00 | 0.00 | 94 | 1002.9 |
| 20260506023645 | 55 | 240 | 0.0 | 0.0 | 0.00 | 0.00 | 0.00 | 94 | 1003.0 |
| 20260506023153 | 55 | 240 | 0.0 | 0.0 | 0.00 | 0.00 | 0.00 | 94 | 1003.0 |
| 20260506022645 | 55 | 240 | 0.0 | 0.0 | 0.00 | 0.00 | 0.00 | 94 | 1003.0 |
| 20260506022155 | 55 | 240 | 0.0 | 0.0 | 0.00 | 0.00 | 0.00 | 94 | 1003.0 |
| 20260506021645 | 55 | 240 | 0.0 | 0.0 | 0.00 | 0.00 | 0.00 | 94 | 1003.2 |
| 20260506021200 | 55 | 240 | 0.0 | 0.0 | 0.00 | 0.00 | 0.00 | 93 | 1003.2 |
| 20260506020648 | 55 | 240 | 0.0 | 0.9 | 0.00 | 0.00 | 0.00 | 93 | 1003.2 |
| 20260506020158 | 55 | 240 | 0.0 | 0.9 | 0.00 | 0.00 | 0.00 | 93 | 1003.2 |
| 20260506015642 | 55 | 240 | 0.0 | 0.9 | 0.00 | 0.00 | 0.00 | 93 | 1003.3 |
| 20260506015153 | 55 | 240 | 0.0 | 0.9 | 0.00 | 0.00 | 0.00 | 93 | 1003.3 |
| 20260506014643 | 55 | 240 | 0.0 | 0.0 | 0.00 | 0.00 | 0.00 | 93 | 1003.3 |
| 20260506014155 | 55 | 240 | 0.0 | 0.0 | 0.00 | 0.00 | 0.00 | 93 | 1003.3 |
| 20260506013646 | 55 | 240 | 0.0 | 0.0 | 0.00 | 0.00 | 0.00 | 94 | 1003.4 |
| 20260506013140 | 55 | 240 | 0.0 | 0.0 | 0.00 | 0.00 | 0.00 | 94 | 1003.4 |
| 20260506012651 | 55 | 240 | 0.0 | 0.0 | 0.00 | 0.00 | 0.00 | 94 | 1003.4 |
| 20260506012141 | 55 | 240 | 0.0 | 0.0 | 0.00 | 0.00 | 0.00 | 94 | 1003.4 |
| 20260506011653 | 55 | 240 | 0.0 | 0.0 | 0.00 | 0.00 | 0.00 | 93 | 1003.4 |
| 20260506011144 | 55 | 240 | 0.0 | 0.0 | 0.00 | 0.00 | 0.00 | 93 | 1003.4 |
| 20260506010506 | 55 | 240 | 0.0 | 0.0 | 0.00 | 0.00 | 0.00 | 93 | 1003.3 |
| 20260506005646 | 55 | 240 | 0.0 | 0.0 | 0.00 | 0.00 | 0.00 | 93 | 1003.3 |
| 20260506005156 | 55 | 240 | 0.0 | 0.0 | 0.00 | 0.00 | 0.00 | 93 | 1003.3 |
| 20260506004648 | 55 | 240 | 0.0 | 0.9 | 0.00 | 0.00 | 0.00 | 93 | 1003.3 |
| 20260506004139 | 55 | 240 | 0.0 | 0.9 | 0.00 | 0.00 | 0.00 | 93 | 1003.4 |
| 20260506003649 | 55 | 240 | 0.0 | 0.0 | 0.00 | 0.00 | 0.00 | 93 | 1003.5 |
| 20260506003141 | 55 | 240 | 0.0 | 0.0 | 0.00 | 0.00 | 0.00 | 93 | 1003.5 |
| 20260506002650 | 55 | 240 | 0.0 | 0.0 | 0.00 | 0.00 | 0.00 | 93 | 1003.5 |
| 20260506002141 | 55 | 240 | 0.0 | 0.0 | 0.00 | 0.00 | 0.00 | 93 | 1003.7 |
| 20260506001651 | 55 | 240 | 0.0 | 0.0 | 0.00 | 0.00 | 0.00 | 93 | 1003.7 |
| 20260506001141 | 55 | 240 | 0.0 | 0.0 | 0.00 | 0.00 | 0.00 | 93 | 1003.7 |
| 20260506000504 | 55 | 240 | 0.0 | 0.0 | 0.00 | 0.00 | 0.00 | 93 | 1003.8 |
| 20260505235644 | 55 | 240 | 0.0 | 0.0 | 0.00 | 0.00 | 0.00 | 93 | 1003.8 |
| 20260505235155 | 55 | 240 | 0.0 | 0.0 | 0.00 | 0.00 | 0.00 | 93 | 1003.9 |
| 20260505234156 | 55 | 240 | 0.0 | 0.0 | 0.00 | 0.00 | 0.00 | 93 | 1004.0 |
| 20260505233646 | 55 | 240 | 0.0 | 0.0 | 0.00 | 0.00 | 0.00 | 93 | 1004.0 |
| 20260505233157 | 55 | 240 | 0.0 | 0.0 | 0.00 | 0.00 | 0.00 | 93 | 1003.9 |
| 20260505232649 | 55 | 240 | 0.0 | 0.0 | 0.00 | 0.00 | 0.00 | 93 | 1004.0 |
| 20260505232143 | 55 | 240 | 0.0 | 0.0 | 0.00 | 0.00 | 0.00 | 93 | 1004.0 |
| 20260505231654 | 55 | 240 | 0.0 | 0.0 | 0.00 | 0.00 | 0.00 | 93 | 1004.1 |
| 20260505231142 | 56 | 240 | 0.0 | 0.0 | 0.00 | 0.00 | 0.00 | 93 | 1004.1 |
| 20260505230504 | 56 | 240 | 0.0 | 0.0 | 0.00 | 0.00 | 0.00 | 93 | 1004.1 |
| 20260505225648 | 56 | 240 | 0.0 | 0.9 | 0.00 | 0.00 | 0.00 | 93 | 1004.2 |
| 20260505225157 | 56 | 240 | 0.0 | 0.9 | 0.00 | 0.00 | 0.00 | 93 | 1004.2 |
| 20260505224648 | 56 | 240 | 0.0 | 0.0 | 0.00 | 0.00 | 0.00 | 93 | 1004.2 |
| 20260505224138 | 56 | 240 | 0.0 | 0.0 | 0.00 | 0.00 | 0.00 | 93 | 1004.3 |
| 20260505223649 | 56 | 240 | 0.0 | 0.0 | 0.00 | 0.00 | 0.00 | 93 | 1004.3 |
| 20260505223141 | 56 | 240 | 0.0 | 0.0 | 0.00 | 0.00 | 0.00 | 93 | 1004.4 |
| 20260505222652 | 56 | 240 | 0.0 | 0.0 | 0.00 | 0.00 | 0.00 | 93 | 1004.4 |
| 20260505222143 | 56 | 240 | 0.0 | 0.0 | 0.00 | 0.00 | 0.00 | 93 | 1004.4 |
| 20260505221654 | 56 | 240 | 0.0 | 0.0 | 0.00 | 0.00 | 0.00 | 93 | 1004.5 |
| 20260505221144 | 56 | 240 | 0.0 | 0.0 | 0.00 | 0.00 | 0.00 | 93 | 1004.6 |
| 20260505220657 | 56 | 240 | 0.0 | 0.0 | 0.00 | 0.00 | 0.00 | 93 | 1004.5 |
| 20260505215651 | 56 | 240 | 0.0 | 0.0 | 0.00 | 0.00 | 0.00 | 93 | 1004.5 |
| 20260505215141 | 56 | 240 | 0.0 | 0.0 | 0.00 | 0.00 | 0.00 | 93 | 1004.5 |
| 20260505214653 | 56 | 240 | 0.0 | 0.0 | 0.00 | 0.00 | 0.00 | 93 | 1004.5 |
| 20260505214144 | 56 | 240 | 0.0 | 0.0 | 0.00 | 0.00 | 0.00 | 93 | 1004.6 |
| 20260505213655 | 56 | 240 | 0.0 | 0.0 | 0.00 | 0.00 | 0.00 | 93 | 1004.6 |
| 20260505213142 | 56 | 240 | 0.0 | 0.0 | 0.00 | 0.00 | 0.00 | 93 | 1004.6 |
| 20260505212654 | 56 | 240 | 0.0 | 0.0 | 0.00 | 0.00 | 0.00 | 93 | 1004.6 |
| 20260505212145 | 56 | 240 | 0.0 | 0.0 | 0.00 | 0.00 | 0.00 | 93 | 1004.7 |
| 20260505211655 | 56 | 240 | 0.0 | 0.0 | 0.00 | 0.00 | 0.00 | 93 | 1004.8 |
| 20260505211147 | 56 | 240 | 0.0 | 0.0 | 0.00 | 0.00 | 0.00 | 93 | 1004.8 |
| 20260505210507 | 56 | 240 | 0.0 | 0.0 | 0.00 | 0.00 | 0.00 | 93 | 1004.8 |
| 20260505205649 | 56 | 240 | 0.0 | 0.0 | 0.00 | 0.00 | 0.00 | 93 | 1004.8 |
| 20260505205201 | 56 | 240 | 0.0 | 0.0 | 0.00 | 0.00 | 0.00 | 92 | 1004.8 |
| 20260505204648 | 57 | 240 | 0.0 | 0.0 | 0.00 | 0.00 | 0.00 | 92 | 1004.8 |
| 20260505204141 | 57 | 240 | 0.0 | 0.9 | 0.00 | 0.00 | 0.00 | 92 | 1004.9 |
| 20260505203650 | 57 | 240 | 0.0 | 0.9 | 0.00 | 0.00 | 0.00 | 93 | 1004.8 |
| 20260505203147 | 57 | 240 | 0.0 | 0.9 | 0.00 | 0.00 | 0.00 | 92 | 1004.9 |
| 20260505202655 | 57 | 240 | 0.0 | 0.9 | 0.00 | 0.00 | 0.00 | 92 | 1004.9 |
| 20260505202146 | 56 | 240 | 0.0 | 0.0 | 0.00 | 0.00 | 0.00 | 92 | 1004.8 |
| 20260505201659 | 57 | 240 | 0.0 | 0.0 | 0.00 | 0.00 | 0.00 | 92 | 1004.8 |
| 20260505201146 | 57 | 240 | 0.0 | 0.0 | 0.00 | 0.00 | 0.00 | 92 | 1004.8 |
| 20260505200656 | 57 | 240 | 0.0 | 0.0 | 0.00 | 0.00 | 0.00 | 92 | 1004.8 |
| 20260505200148 | 57 | 240 | 0.0 | 0.0 | 0.00 | 0.00 | 0.00 | 92 | 1004.8 |
| 20260505195650 | 57 | 240 | 0.0 | 0.0 | 0.00 | 0.00 | 0.00 | 92 | 1004.8 |
| 20260505195143 | 57 | 240 | 0.0 | 0.0 | 0.00 | 0.00 | 0.00 | 92 | 1004.8 |
| 20260505194654 | 57 | 240 | 0.0 | 0.0 | 0.00 | 0.00 | 0.00 | 92 | 1004.7 |
| 20260505194142 | 57 | 240 | 0.0 | 0.0 | 0.00 | 0.00 | 0.00 | 92 | 1004.7 |
| 20260505193652 | 57 | 240 | 0.0 | 0.0 | 0.00 | 0.00 | 0.00 | 92 | 1004.7 |
| 20260505193141 | 57 | 240 | 0.0 | 0.0 | 0.00 | 0.00 | 0.00 | 92 | 1004.7 |
| 20260505192654 | 57 | 240 | 0.0 | 0.0 | 0.00 | 0.00 | 0.00 | 92 | 1004.7 |
| 20260505192142 | 57 | 240 | 0.0 | 0.0 | 0.00 | 0.00 | 0.00 | 92 | 1004.8 |
| 20260505191655 | 57 | 240 | 0.0 | 0.0 | 0.00 | 0.00 | 0.00 | 92 | 1004.7 |
| 20260505191142 | 57 | 240 | 0.0 | 0.0 | 0.00 | 0.00 | 0.00 | 92 | 1004.7 |
| 20260505190502 | 57 | 240 | 0.0 | 0.0 | 0.00 | 0.00 | 0.00 | 92 | 1004.7 |
| 20260505185645 | 57 | 240 | 0.0 | 0.0 | 0.00 | 0.00 | 0.00 | 92 | 1004.7 |
| 20260505185155 | 57 | 240 | 0.0 | 0.0 | 0.00 | 0.00 | 0.00 | 92 | 1004.7 |
| 20260505184647 | 57 | 240 | 0.0 | 0.0 | 0.00 | 0.00 | 0.00 | 92 | 1004.7 |
| 20260505184158 | 57 | 240 | 0.0 | 0.0 | 0.00 | 0.00 | 0.00 | 92 | 1004.7 |
| 20260505183648 | 57 | 240 | 0.0 | 0.0 | 0.00 | 0.00 | 0.00 | 92 | 1004.8 |
| 20260505183157 | 57 | 240 | 0.0 | 0.0 | 0.00 | 0.00 | 0.00 | 91 | 1004.8 |
| 20260505182648 | 57 | 240 | 0.0 | 0.0 | 0.00 | 0.00 | 0.00 | 91 | 1004.8 |
| 20260505182144 | 57 | 240 | 0.0 | 0.0 | 0.00 | 0.00 | 0.00 | 92 | 1004.9 |
| 20260505181656 | 57 | 240 | 0.0 | 0.0 | 0.00 | 0.00 | 0.00 | 92 | 1004.8 |
| 20260505181144 | 57 | 240 | 0.0 | 0.0 | 0.00 | 0.00 | 0.00 | 91 | 1004.9 |
| 20260505180655 | 57 | 240 | 0.0 | 0.0 | 0.00 | 0.00 | 0.00 | 91 | 1004.8 |
| 20260505180146 | 57 | 240 | 0.0 | 0.0 | 0.00 | 0.00 | 0.00 | 91 | 1004.8 |
| 20260505175651 | 57 | 240 | 0.0 | 0.0 | 0.00 | 0.00 | 0.00 | 91 | 1004.9 |
| 20260505175144 | 57 | 240 | 0.0 | 0.0 | 0.00 | 0.00 | 0.00 | 91 | 1004.9 |
| 20260505174652 | 57 | 240 | 0.0 | 0.0 | 0.00 | 0.00 | 0.00 | 91 | 1004.9 |
| 20260505174145 | 57 | 240 | 0.0 | 0.0 | 0.00 | 0.00 | 0.00 | 91 | 1004.8 |
| 20260505173655 | 57 | 240 | 0.0 | 0.0 | 0.00 | 0.00 | 0.00 | 91 | 1004.8 |
| 20260505173149 | 57 | 240 | 0.0 | 0.0 | 0.00 | 0.00 | 0.00 | 91 | 1004.9 |
| 20260505172658 | 57 | 240 | 0.0 | 0.0 | 0.00 | 0.00 | 0.00 | 91 | 1004.8 |
| 20260505172149 | 57 | 240 | 0.0 | 0.0 | 0.00 | 0.00 | 0.00 | 91 | 1004.9 |
| 20260505171657 | 57 | 240 | 0.0 | 0.0 | 0.00 | 0.00 | 0.00 | 91 | 1004.9 |
| 20260505171148 | 57 | 240 | 0.0 | 0.0 | 0.00 | 0.00 | 0.00 | 91 | 1004.9 |
| 20260505170640 | 57 | 240 | 0.0 | 0.0 | 0.00 | 0.00 | 0.00 | 91 | 1004.9 |
| 20260505170152 | 57 | 240 | 0.0 | 0.0 | 0.00 | 0.00 | 0.00 | 90 | 1004.9 |
| 20260505165655 | 57 | 240 | 0.0 | 0.0 | 0.00 | 0.00 | 0.00 | 91 | 1004.9 |
| 20260505165147 | 57 | 240 | 0.0 | 0.0 | 0.00 | 0.00 | 0.00 | 90 | 1004.9 |
| 20260505164656 | 57 | 240 | 0.0 | 0.9 | 0.00 | 0.00 | 0.00 | 90 | 1004.9 |
| 20260505164148 | 58 | 240 | 0.0 | 1.7 | 0.00 | 0.00 | 0.00 | 90 | 1005.0 |
| 20260505163656 | 58 | 240 | 0.0 | 1.7 | 0.00 | 0.00 | 0.00 | 90 | 1005.0 |
| 20260505163148 | 58 | 240 | 0.0 | 0.9 | 0.00 | 0.00 | 0.00 | 90 | 1005.1 |
| 20260505162638 | 58 | 240 | 0.0 | 0.9 | 0.00 | 0.00 | 0.00 | 90 | 1005.1 |
| 20260505162149 | 58 | 240 | 0.0 | 2.6 | 0.00 | 0.00 | 0.00 | 89 | 1005.1 |
| 20260505161644 | 58 | 240 | 0.0 | 2.6 | 0.00 | 0.00 | 0.00 | 89 | 1005.0 |
| 20260505161153 | 58 | 240 | 0.0 | 4.3 | 0.00 | 0.00 | 0.00 | 88 | 1005.1 |
| 20260505160643 | 58 | 240 | 0.9 | 4.3 | 0.00 | 0.00 | 0.00 | 88 | 1005.1 |
| 20260505160154 | 59 | 248 | 0.0 | 3.5 | 0.00 | 0.00 | 0.00 | 87 | 1005.1 |
| 20260505153148 | 62 | 355 | 0.0 | 7.8 | 0.00 | 0.00 | 0.00 | 77 | 1005.0 |
| 20260505152640 | 62 | 214 | 0.9 | 7.8 | 0.00 | 0.00 | 0.00 | 76 | 1005.0 |
| 20260505152150 | 63 | 240 | 0.9 | 8.7 | 0.00 | 0.00 | 0.00 | 75 | 1004.7 |
| 20260505151642 | 64 | 237 | 1.7 | 7.8 | 0.00 | 0.00 | 0.00 | 73 | 1004.4 |
| 20260505151151 | 65 | 210 | 0.9 | 8.7 | 0.00 | 0.00 | 0.00 | 69 | 1004.4 |
| 20260505150642 | 67 | 217 | 1.7 | 8.7 | 0.00 | 0.00 | 0.00 | 65 | 1004.3 |
| 20260505150153 | 67 | 260 | 0.9 | 3.5 | 0.00 | 0.00 | 0.00 | 60 | 1004.2 |
| 20260505140644 | 69 | 250 | 0.0 | 0.0 | 0.00 | 0.00 | 0.00 | 63 | 1004.6 |
| 20260505140156 | 69 | 250 | 0.0 | 0.9 | 0.00 | 0.00 | 0.00 | 61 | 1004.6 |
| 20260505130154 | 69 | 252 | 0.0 | 1.7 | 0.00 | 0.00 | 0.00 | 65 | 1005.2 |
| 20260505124641 | 67 | 252 | 0.0 | 1.7 | 0.00 | 0.00 | 0.00 | 66 | 1005.4 |